DW7955 Weather Reports


time (UTC)temp
F
wind
direction
speed
knots
gust
knots
rain 1hr
in
rain 24hr
in
rain mn
in
humidity
%
barometer
mb
20260510170032 57 122 2.6 13.9 0.00 0.00 0.00 66 1017.3
20260510164531 56 124 5.2 9.6 0.00 0.00 0.00 68 1017.4
20260510163031 55 78 2.6 7.0 0.00 0.00 0.00 70 1017.4
20260510161531 55 123 1.7 9.6 0.00 0.00 0.00 70 1017.4
20260510160034 55 111 1.7 8.7 0.00 0.00 0.00 68 1017.5
20260510154528 53 119 2.6 6.1 0.00 0.00 0.00 72 1017.5
20260510153022 53 81 3.5 7.8 0.00 0.00 0.00 73 1017.5
20260510151525 52 74 1.7 6.1 0.00 0.00 0.00 74 1017.4
20260510150020 52 71 3.5 7.0 0.00 0.00 0.00 75 1017.4
20260510144522 52 35 0.9 4.3 0.00 0.00 0.00 75 1017.3
20260510143019 52 46 2.6 4.3 0.00 0.00 0.00 77 1017.3
20260510141518 52 66 0.0 1.7 0.00 0.00 0.00 75 1017.4
20260510140014 52 149 0.0 0.9 0.00 0.00 0.00 75 1017.2
20260510134514 52 149 0.0 2.6 0.00 0.00 0.00 74 1017.2
20260510133012 52 50 0.0 2.6 0.00 0.00 0.00 76 1017.3
20260510131509 51 56 1.7 3.5 0.00 0.00 0.00 79 1017.1
20260510130007 50 129 0.0 1.7 0.00 0.00 0.00 82 1016.9
20260510124507 49 128 0.0 0.0 0.00 0.00 0.00 83 1016.8
20260510123006 49 128 0.0 0.0 0.00 0.00 0.00 83 1016.9
20260510121504 49 128 0.0 0.0 0.00 0.00 0.00 84 1016.7
20260510120002 49 128 0.0 0.0 0.00 0.00 0.00 83 1016.7
20260510114502 49 128 0.0 0.0 0.00 0.00 0.00 84 1016.6
20260510113001 49 128 0.0 0.0 0.00 0.00 0.00 84 1016.5
20260510111609 49 128 0.0 0.0 0.00 0.00 0.00 84 1016.5
20260510110059 49 128 0.0 2.6 0.00 0.00 0.00 84 1016.5
20260510104620 49 55 0.9 5.2 0.00 0.00 0.00 84 1016.4
20260510103058 49 54 2.6 4.3 0.00 0.00 0.00 84 1016.6
20260510101607 49 10 1.7 5.2 0.00 0.00 0.00 84 1016.5
20260510094605 49 11 3.5 6.1 0.00 0.00 0.00 83 1016.5
20260510093054 49 7 5.2 9.6 0.00 0.00 0.00 83 1016.4
20260510091551 50 5 4.3 9.6 0.00 0.00 0.00 82 1016.2
20260510090052 50 36 5.2 10.4 0.00 0.00 0.00 82 1016.1
20260510084548 50 43 4.3 9.6 0.00 0.00 0.00 82 1016.2
20260510083047 50 6 4.3 10.4 0.00 0.00 0.00 82 1016.0
20260510081545 50 339 4.3 7.8 0.00 0.00 0.00 82 1015.8
20260510080043 50 40 5.2 9.6 0.00 0.00 0.00 81 1015.6
20260510074545 50 43 3.5 10.4 0.00 0.00 0.00 81 1015.4
20260510073044 50 32 7.8 14.8 0.00 0.00 0.00 80 1015.3
20260510071539 50 31 8.7 17.4 0.00 0.00 0.00 78 1015.3
20260510070037 51 57 9.6 19.1 0.00 0.00 0.00 75 1015.3
20260510064529 53 15 11.3 20.9 0.00 0.00 0.00 69 1014.6
20260510063026 53 40 13.0 20.9 0.00 0.00 0.00 66 1014.1
20260510061523 54 34 13.9 26.1 0.00 0.00 0.00 63 1014.0
20260510060020 54 10 12.2 24.3 0.00 0.00 0.00 62 1013.5
20260510054516 55 40 17.4 30.4 0.00 0.00 0.00 60 1012.7
20260510053013 55 32 14.8 26.9 0.00 0.00 0.00 58 1011.4
20260510051511 56 9 19.1 32.2 0.00 0.00 0.00 58 1010.5
20260510050014 56 15 18.2 29.5 0.00 0.00 0.00 56 1010.6
20260510044511 57 1 20.9 31.3 0.00 0.00 0.00 53 1010.4
20260510043010 57 7 19.1 36.5 0.00 0.00 0.00 54 1010.2
20260510041506 58 346 20.9 36.5 0.00 0.00 0.00 53 1009.7
20260510040002 59 340 20.9 33.0 0.00 0.00 0.00 51 1009.3
20260510034600 63 9 14.8 23.5 0.00 0.00 0.00 40 1008.9
20260510033126 66 18 2.6 7.0 0.00 0.00 0.00 34 1007.7
20260510031622 67 80 6.1 10.4 0.00 0.00 0.00 32 1006.7
20260510030101 66 58 6.1 8.7 0.00 0.00 0.00 32 1006.5
20260510024557 67 59 6.1 9.6 0.00 0.00 0.00 31 1006.1
20260510023056 68 34 5.2 7.8 0.00 0.00 0.00 29 1005.6
20260510021556 69 53 7.0 9.6 0.00 0.00 0.00 28 1005.2
20260510020055 70 74 4.3 8.7 0.00 0.00 0.00 25 1004.7
20260510014606 70 75 3.5 7.8 0.00 0.00 0.00 24 1004.2
20260510013054 71 117 3.5 6.1 0.00 0.00 0.00 22 1004.3
20260510011559 72 32 2.6 14.8 0.00 0.00 0.00 23 1004.7
20260510004557 71 336 3.5 12.2 0.00 0.00 0.00 27 1005.4
20260510003059 71 7 7.8 19.1 0.00 0.00 0.00 25 1005.0
20260510001552 72 36 7.8 13.9 0.00 0.00 0.00 24 1004.5
20260510000055 73 9 8.7 19.1 0.00 0.00 0.00 21 1004.4
20260509234605 74 13 16.5 27.8 0.00 0.00 0.00 20 1003.6
20260509233050 74 37 5.2 20.0 0.00 0.00 0.00 19 1003.2
20260509231550 75 65 7.8 14.8 0.00 0.00 0.00 18 1002.7
20260509230052 75 49 9.6 13.9 0.00 0.00 0.00 18 1002.8
20260509224549 75 22 7.8 17.4 0.00 0.00 0.00 18 1002.5
20260509223056 75 1 10.4 23.5 0.00 0.00 0.00 18 1002.6
20260509221551 78 10 11.3 19.1 0.00 0.00 0.00 16 1002.4
20260509220058 81 176 6.1 10.4 0.00 0.00 0.00 12 1001.8
20260509214547 81 125 3.5 6.1 0.00 0.00 0.00 12 1001.8
20260509213045 80 200 2.6 10.4 0.00 0.00 0.00 12 1002.0
20260509211545 81 136 2.6 6.1 0.00 0.00 0.00 12 1002.1
20260509210041 80 242 1.7 7.8 0.00 0.00 0.00 14 1002.5
20260509204547 81 291 3.5 7.8 0.00 0.00 0.00 12 1002.8
20260509203038 81 252 0.9 7.0 0.00 0.00 0.00 14 1003.0
20260509201532 80 148 4.3 11.3 0.00 0.00 0.00 14 1003.6
20260509200037 80 351 3.5 9.6 0.00 0.00 0.00 13 1003.9
20260509194537 79 241 3.5 8.7 0.00 0.00 0.00 14 1004.2
20260509193035 79 217 6.1 14.8 0.00 0.00 0.00 14 1004.5
20260509191524 78 246 3.5 9.6 0.00 0.00 0.00 15 1004.7
20260509190023 79 219 7.8 13.9 0.00 0.00 0.00 15 1005.0
20260509184520 79 261 2.6 9.6 0.00 0.00 0.00 16 1005.1
20260509183016 78 314 6.1 13.0 0.00 0.00 0.00 16 1005.3
20260509181513 77 298 5.2 13.0 0.00 0.00 0.00 16 1005.6
20260509180010 76 253 4.3 16.5 0.00 0.00 0.00 17 1005.6
20260509174509 76 253 2.6 14.8 0.00 0.00 0.00 16 1005.9
20260509173005 75 329 1.7 12.2 0.00 0.00 0.00 19 1006.1
20260509171506 75 271 2.6 11.3 0.00 0.00 0.00 18 1006.2